Regional Weather Roundup
Issued by NWS Newport/Morehead, NC

Current Version | Previous Version | Graphics & Text | Print | Product List | Glossary On
Versions: 1 2 3 4 5 6 7 8 9 10 11 12 13 14 15 16 17 18 19 20 21 22 23 24 25 26 27 28 29 30 31 32 33 34 35 36 37 38 39 40 41 42 43 44 45 46 47 48 49 50
000 ASUS42 KMHX 111325 RWRMHX WEATHER ROUNDUP FOR EASTERN NORTH CAROLINA NATIONAL WEATHER SERVICE NEWPORT/MOREHEAD CITY NC 800 AM EST THU FEB 11 2016 NOTE: "FAIR" INDICATES FEW OR NO CLOUDS BELOW 12,000 FEET WITH NO SIGNIFICANT WEATHER AND/OR OBSTRUCTIONS TO VISIBILITY NCZ015>017-031-032-045>047-102-103-111400- NORTH COAST CITY SKY/WX TMP DP RH WIND PRES REMARKS EDENTON SUNNY 28 11 48 NW13G20 30.19R WCI 17 ELIZABETH CITY SUNNY 25 10 53 W14 30.17R WCI 13 KITTY HAWK SUNNY 28 9 43 W12G22 30.14R WCI 18 MANTEO SUNNY 28 12 50 NW14G24 30.17R WCI 17 $$ NCZ045>047-081-094-103-104-111400- CENTRAL COAST CITY SKY/WX TMP DP RH WIND PRES REMARKS FRISCO SUNNY 30 13 49 NW13G23 30.15F WCI 20 SWANQUARTER N/A 28 N/A N/A NW17G24 30.15S WCI 16 $$ NCZ095-097-098-100-101-111400- SOUTHERN COAST CITY SKY/WX TMP DP RH WIND PRES REMARKS BEAUFORT SUNNY 29 12 49 N15 30.17S WCI 18 CEDAR ISLAND N/A 30 N/A N/A NW18G32 30.21S WCI 18 JACKSONVILLE MOSUNNY 27 12 53 NW8 30.19R PINEY ISLAND SUNNY N/A N/A N/A NW13 30.17S WILMINGTON SUNNY 30 12 47 NW8 30.21R $$ NCZ011>013-027>030-043-044-078>080-089-090>093-098-111400- COASTAL PLAIN CITY SKY/WX TMP DP RH WIND PRES REMARKS AHOSKIE SUNNY 24 7 47 CALM 30.19R CLINTON PTCLDY 27 12 53 NW5 30.22R ELIZABETHTOWN PTCLDY 27 14 59 CALM 30.22R GOLDSBORO MOSUNNY 25 7 46 W5 30.18R GREENVILLE SUNNY 28 9 43 N6 30.20S HAVELOCK SUNNY 28 10 46 NW13 30.18F WCI 17 KENANSVILLE MOSUNNY 26 10 49 CALM 30.22R KINSTON SUNNY 27 10 50 W3 30.20R NEW BERN SUNNY 27 10 49 NW7 30.19F RICHLANDS MOSUNNY 27 10 50 W3 30.21R ROCKY MOUNT PTCLDY 24 6 46 NW5 30.19R WASHINGTON SUNNY 26 8 44 NW9 30.19S WHITEVILLE PTCLDY 28 21 72 CALM 30.23R $$ AMZ130-135-150-152-154-156-158-170-250-252-270-ANZ085-086-088-633-658-670-111400- MARINE OBSERVATIONS STATION/POSITION TIME TEMP WIND PRES WAVE SWELL AIR SEA DIR/SP/G HT/PER HT/PER (UTC) (F) (DEG/KT/KT) (MB) (FT/S) (FT/S) CHESAPEAKE LIGHT 1200 27 290/ 18/ 21 1019.7 64 E VA BEACH 1150 32 48 300/ 19/ 27 1017.2 8/ 7 2/13 DUCK 1300 27 280/ 15/ 20 1020.5 2 E DUCK 1311 44 N/A 3/13 2/13 OREGON INLET 1300 28 41 290/ 14/ 19 1020.9 13E OREGON INLT 1300 47 N/A 6/ 6 2/13 HATTERAS CG 1300 30 46 300/ 22/ 27 1020.6 DIAMOND BUOY 1150 34 71 310/ 23/ 33 1019.9 7/ 8 2/11 CAPE LOOKOUT NOT AVBL BEAUFORT LAB 1300 29 44 340/ 12/ 17 1020.5 30 SE NEW RVR IN 1308 36 59 1021.7 30 SE NEW RVR IN 1225 59 N/A 7/ 8 2/11 27 SE WRIGHTSVLE 1308 37 61 360/ 14/ 23 1020.9 5 SE WRIGHTSVLE 1208 33 51 350/ 16/ 19 1022.5 225 S CAPE HAT 1150 53 68 300/ 25/ 31 N/A 14/10 8/10 41 SE CHARLESTON 1150 43 63 300/ 21/ 25 1023.0 8/ 6 2/15 $$

USA.gov is the U.S. government's official web portal to all federal, state and local government web resources and services.